{"data":{"norad_id":42951,"intl_designator":"2017-059B","name":"BSAT-4A","alt_names":[],"object_type":"PAYLOAD","status":"ACTIVE","operator":null,"country":"JPN","launch_date":"2017-09-29","launch_site_code":"FRGUI","launch_vehicle":null,"mission":null,"orbit_class":"UNKNOWN","rcs_meters":null,"size_class":null,"mass_kg":null,"dimensions":null,"purposes":["comms"],"wikipedia_slug":null,"has_3d_model":false,"image_url":null,"decayed_at":null,"tle_current":{"epoch":"2026-05-24T23:07:53.761152Z","epoch_age_seconds":78514,"freshness":"FRESH","line1":"1 42951U 17059B   26144.96381668 -.00000353  00000+0  00000+0 0  9997","line2":"2 42951   0.0365 347.6556 0004484  70.0468 281.6549  1.00273835 31567","mean_motion":1.00273835,"eccentricity":0.0004484,"inclination_deg":0.0365,"raan_deg":347.6556,"arg_perigee_deg":70.0468,"mean_anomaly_deg":281.6549,"bstar":0,"rev_number":3156,"period_min":1436.0675444397,"perigee_km":35767.113873439,"apogee_km":35804.926689689,"semimajor_km":42164.157281564,"source":"CELESTRAK","updated_at":"2026-05-25T13:38:14.048610Z"}}}